www.pogodaiklimat.ru

Погода и климат >> Архив погоды >> Россия >> Якутия >> Тонгулах


ПОГОДА в Тонгулахе

  • Прогноз погоды в Тонгулахе
  • Монитор погоды в Тонгулахе
  • Климат города

АРХИВ ПОГОДЫ в Тонгулахе

Время (UTC), дата Ветер
(напр.,м/с)
 
Видим.   Явления Облачность Т
(С)
Тd
(С)
f
(%)
Тe
(С)
Тes
(С)
Комфортность P
(гПа)
Po
(гПа)
Тmin
(С)
Tmax
(С)
R
(мм)
R24
(мм)
S
(см)
18 16.10 З 1 20 км 10/0
[Ac As]
-9.2 -12.2 79 -11 -11 1030.2 1004.0
21 16.10 З 1 20 км 10/0
[As op]
-10.2 -12.9 81 -12 -12 1030.1 1003.8
00 17.10 З 1 50 км 10/0
[As op]
-9.2 -11.7 82 -12 -12 1029.8 1003.5 -10.4 10
03 17.10 З 1 50 км 10/0
[As op]
-8.8 -12.6 74 -11 -11 1029.0 1002.9
06 17.10 штиль 0 50 км 8/0
[Ac trans]
-5.4 -10.9 65 -6 -5 1027.7 1001.9
09 17.10 штиль 0 50 км ясно -10.0 -14.2 71 -10 -10 1027.2 1001.0
12 17.10 штиль 0 50 км ясно -18.6 -21.2 80 -19 -19 1027.2 1000.1 -6.2
15 17.10 штиль 0 20 км ясно -21.8 -24.3 80 -22 -22 1025.6 999.2
18 17.10 штиль 0 20 км ясно -22.4 -24.2 85 -22 -22 1025.9 998.5
21 17.10 штиль 0 20 км ясно -24.4 -26.9 80 -24 -24 1023.7 996.2
00 18.10 штиль 0 50 км 4/0
[Ci fib]
-24.8 -27.3 80 -25 -25 1022.6 995.0 -25.1 10
03 18.10 ЮВ 1 50 км 10/0
[Cs]
-11.0 -15.4 70 -13 -12 1019.3 993.2
06 18.10 СВ 2 50 км 10/0
[Cs]
-5.8 -12.5 59 -10 -9 1017.7 992.2
09 18.10 штиль 0 50 км 10/0
[As op]
-6.6 -12.2 64 -7 -7 1018.2 992.6
12 18.10 штиль 0 10 км слабый снег 10/0
[As op]
-7.2 -9.7 82 -8 -8 1018.8 993.1 -5.5 0.3
15 18.10 штиль 0 20 км 10/0
[As op]
-10.8 -12.8 85 -11 -11 1019.5 993.4
18 18.10 штиль 0 20 км 10/0
[As op]
-11.7 -13.7 85 -12 -12 1019.9 993.7
21 18.10 штиль 0 20 км ясно -18.6 -20.5 85 -19 -19 1021.2 994.2
00 19.10 штиль 0 50 км 10/0
[As op]
-16.6 -18.5 85 -17 -17 1021.5 994.9 -18.7 11
03 19.10 С 1 50 км {снег} 10/0
[As op]
-11.4 -12.7 90 -14 -13 1021.8 995.7
06 19.10 штиль 0 50 км {снег} 10/0
[As op]
-10.3 -12.3 85 -11 -10 1022.4 996.4
09 19.10 штиль 0 50 км 10/6 1000 м
[Sc Cs]
-12.2 -14.2 85 -12 -12 1024.2 997.8
12 19.10 штиль 0 20 км 10/0
[Cs]
-17.5 -19.4 85 -18 -18 1026.2 999.3 -10.1 0.4
15 19.10 штиль 0 10 км слабый снег 10/0
[As op]
-15.6 -16.9 90 -16 -16 1027.3 1000.6
18 19.10 штиль 0 20 км {снег} 10/0
[Cs]
-16.1 -17.4 90 -16 -16 1028.4 1001.6
21 19.10 штиль 0 10 км слабый снег 10/0
[As op]
-16.3 -18.2 85 -16 -16 1029.8 1002.9
00 20.10 штиль 0 20 км слабый снег 10/0
[As op]
-15.5 -17.4 85 -16 -16 1030.8 1004.0 -16.4 1 15
03 20.10 штиль 0 20 км слабый снег 10/0
[As op]
-11.2 -13.2 85 -11 -11 1030.8 1004.4
06 20.10 штиль 0 50 км {снег} 10/0
[Ac As]
-9.4 -11.9 82 -10 -10 1031.1 1004.9
09 20.10 штиль 0 20 км {снег} 10/0
[As op]
-10.7 -12.7 85 -11 -11 1032.3 1005.7
12 20.10 штиль 0 20 км {снег} 10/0
[As op]
-12.8 -14.8 85 -13 -13 1032.8 1006.2 -9.0 0.8
15 20.10 штиль 0 20 км 10/0
[As op]
-13.2 -15.2 85 -13 -13 1032.7 1006.1
18 20.10 штиль 0 20 км 10/0
[As op]
-14.0 -15.3 90 -14 -14 1032.5 1005.8
21 20.10 штиль 0 20 км 10/0
[As op]
-14.4 -17.1 80 -14 -14 1032.4 1002.7
00 21.10 штиль 0 50 км 10/0
[As op]
-13.8 -16.5 80 -14 -14 1032.3 1005.6 -14.6 15
03 21.10 штиль 0 50 км 10/0
[As op]
-12.8 -15.5 80 -13 -12 1031.8 1005.2
06 21.10 штиль 0 50 км 10/0
[As op]
-12.0 -15.5 75 -12 -12 1030.9 1004.4
09 21.10 штиль 0 20 км 6/0
[As trans]
-13.4 -17.0 74 -13 -13 1030.6 1004.1
12 21.10 штиль 0 20 км 3/0
[Ci fib]
-18.4 -21.0 80 -18 -18 1030.3 1003.2 -11.8
15 21.10 штиль 0 20 км 8/0
[As trans]
-17.8 -19.7 85 -18 -18 1028.7 1001.7
18 21.10 штиль 0 20 км 10/0
[As op]
-17.0 -18.9 85 -17 -17 1027.6 1000.7
21 21.10 штиль 0 20 км 8/0
[Cs]
-15.2 -17.7 81 -15 -15 1025.4 998.7
00 22.10 штиль 0 50 км 10/0
[Cs]
-15.8 -17.7 85 -16 -16 1023.3 996.7 -18.2 15
03 22.10 Ю 1 50 км 10/0
[Ci fib]
-9.2 -15.4 61 -11 -10 1018.9 993.0
06 22.10 Ю 2 50 км 9/0
[Ac trans Ci sp]
-5.0 -14.0 49 -9 -8 1016.8 991.4
09 22.10 штиль 0 20 км 10/0
[Ac und]
-6.6 -14.9 52 -7 -7 1014.9 989.4
12 22.10 штиль 0 20 км 10/0
[As op]
-5.6 -11.2 65 -6 -6 1013.7 988.2 -4.4
15 22.10 штиль 0 10 км слабый снег 10/0
[As op]
-6.4 -8.4 86 -7 -7 1013.0 987.5
18 22.10 штиль 0 10 км слабый снег 10/0
[As op]
-6.8 -8.8 86 -8 -8 1012.4 987.0
21 22.10 штиль 0 20 км {снег} 10/0
[As op]
-7.0 -9.1 85 -8 -8 1012.9 987.4
00 23.10 штиль 0 50 км {снег} 10/0
[As op]
-4.0 -5.9 87 -5 -5 1012.4 987.2 -7.1 2 17
03 23.10 штиль 0 50 км 10/4 1000 м
[Sc Ac und]
-0.3 -3.3 80 -1 -1 1011.3 986.5
06 23.10 штиль 0 50 км 10/10 1000 м
[Sc]
+0.9 -3.0 75 0 0 1010.1 985.4
09 23.10 штиль 0 50 км 4/0
[Ac trans]
-2.6 -5.6 80 -4 -4 1009.3 984.3
12 23.10 штиль 0 20 км 8/0
[Ac trans]
-2.6 -4.9 84 -4 -4 1007.1 982.2 +1.2
15 23.10 штиль 0 20 км 8/0
[Ac trans]
-8.2 -9.5 90 -9 -9 1005.3 979.7

 

Местоположение метеостанции Тонгулах (Якутия, Россия): широта 61.92 долгота 124.50 высота над уровнем моря 199 м.

В архиве по умолчанию представлена погода в Тонгулахе за последнюю неделю. Архивные данные за месяц целиком и за предыдущие месяцы, начиная с января 2011 года, Вы можете получить, выбрав интересующий диапазон дат из раскрывающегося списка и нажав кнопку "Ввод!".

Внимание! Время в таблицах - всемирное. Для получения местного времени необходимо прибавить поправку, которая в Тонгулахе равна 9 ч.

Смотрите также архив погоды в соседних городах и на ближайших метеорологических станциях:

Погода в Исите (Якутия, Россия) (130 км)
Погода в Бердигестяхе (Якутия, Россия) (136 км)
Погода в Хатырык-Хомо (Якутия, Россия) (226 км)
Погода в Покровске (Якутия, Россия) (247 км)
Погода в Вилюйске (Якутия, Россия) (253 км)
Погода в Якутске (Якутия, Россия) (267 км)
Погода в Сангаре (Якутия, Россия) (269 км)
Погода в Олекминске (Якутия, Россия) (277 км)
Погода в Верхневилюйске (Якутия, Россия) (278 км)
Погода в Намцах (Якутия, Россия) (278 км)

Пояснения к столбцам:

Ветер - указаны скорость ветра в м/с - средняя за 10 мин, порывы в срок и между сроками (в фигурных скобках) и направление, откуда дует ветер: С - северный, СВ - северо-восточный, В - восточный, ЮВ - юго-восточный, Ю - южный, ЮЗ - юго-западный, З - западный, СЗ - северо-западный.
Видимость - горизонтальная дальность видимости в метрах или километрах. При видимости от 1 до 10 км при отсутствии осадков обычно наблюдается дымка, при ухудшении видимости до 1 км и менее - туман. В сухую погоду видимость может ухудшаться дымом, пылью или мглою.
Явления - указаны атмосферные явления, наблюдавшиеся в срок или в последний час перед сроком; фигурными скобками обозначены явления, наблюдавшиеся между сроками (за 1-3 часа до срока); квадратными скобками обозначены град или гололедные отложения с указанием их диаметра в мм.
Облачность - указаны через наклонную черту общая и нижняя облачность в баллах и высота нижней границы облаков в метрах; квадратными скобками обозначены формы облаков: Ci - перистые, Cs - перисто-слоистые, Cc - перисто-кучевые, Ac - высококучевые, As - высокослоистые, Sc - слоисто-кучевые, Ns - слоисто-дождевые, Cu - кучевые, Cb - кучево-дождевые. Подробнее классификацию облаков см. в Атласе облаков (PDF).
T - Температура воздуха - температура, измеренная на высоте 2 м над землей.
Td - Температура точки росы - температура, при понижении до которой содержащийся в воздухе водяной пар достигнет насыщения.
f - Относительная влажность воздуха - влажноcть воздуха, измеренная на высоте 2 м над землей.
Te - Эффективная температура - температура, которую ощущает одетый по сезону человек в тени. Характеристика душности погоды. При расчете учитывается влияние влажности воздуха и скорости ветра на теплоощущения человека.
Tes - Эффективная температура на солнце - температура, которую ощущает человек, с поправкой на солнечный нагрев. Характеристика знойности погоды. Зависит от высоты солнца над горизонтом, облачности и скорости ветра. Ночью, в пасмурную погоду, а также при ветре 12 м/с и более поправка равна нулю.
P - Атмосферное давление - приведенное к уровню моря атмосферное давление.
Po - Атмосферное давление - измеренное на уровне метеостанции атмосферное давление.
Tmin - Минимальная температура - минимум температуры воздуха на высоте 2 м над землей.
Tmax - Максимальная температура - максимум температуры воздуха на высоте 2 м над землей.
R - Количество осадков - Количество выпавших осадков за период времени, мм. При наведении курсора мыши на число - период времени, за который выпало указанное количество осадков.
R24 - Количество осадков - Количество выпавших осадков за 24 часа, мм.
S - Снежный покров - Высота снежного покрова, см. При наведении курсора мыши на число - состояние снежного покрова и степень покрытия местности в баллах.